• In Hungary
  • List of Countries
  • For 7 days
  • Water Temperature
  • Satellite Maps
  • Weather Map
  • News
  • Weather Widgets
  • user-avatar
    Login

    Hourly Weather Ivkovo

    Today, 25 June, Monday

    Time Temperature Precipitation Wind Pressure Humidity
    00:00 +8°C° 0 mm 2 mps 733 mmHg 95%
    01:00 +8°C° 0 mm 2 mps 734 mmHg 96%
    02:00 +9°C° 0 mm 1 mps 734 mmHg 97%
    03:00 +9°C° 0 mm 1 mps 734 mmHg 95%
    04:00 +10°C° 0 mm 1 mps 735 mmHg 93%
    05:00 +11°C° 0 mm 1 mps 735 mmHg 91%
    06:00 +13°C° 0 mm 2 mps 735 mmHg 82%
    07:00 +15°C° 0 mm 2 mps 736 mmHg 73%
    08:00 +17°C° 0 mm 2 mps 736 mmHg 62%
    09:00 +18°C° 0 mm 2 mps 736 mmHg 57%
    10:00 +19°C° 0 mm 2 mps 736 mmHg 52%
    11:00 +20°C° 0 mm 2 mps 736 mmHg 47%
    12:00 +21°C° 0 mm 3 mps 736 mmHg 47%
    13:00 +21°C° 0 mm 3 mps 736 mmHg 46%
    14:00 +22°C° 0 mm 3 mps 737 mmHg 45%
    15:00 +21°C° 0 mm 2 mps 737 mmHg 49%
    16:00 +21°C° 0 mm 2 mps 737 mmHg 52%
    17:00 +20°C° 0 mm 2 mps 737 mmHg 55%
    18:00 +19°C° 0 mm 2 mps 737 mmHg 62%
    19:00 +18°C° 0 mm 1 mps 737 mmHg 70%
    20:00 +16°C° 0 mm 1 mps 738 mmHg 77%
    21:00 +15°C° 0 mm 1 mps 738 mmHg 81%
    22:00 +13°C° 0 mm 1 mps 738 mmHg 85%
    23:00 +12°C° 0 mm 1 mps 739 mmHg 89%

    Tomorrow, 26 June, Tuesday

    Time Temperature Precipitation Wind Pressure Humidity
    00:00 +12°C° 0 mm 1 mps 739 mmHg 91%
    01:00 +11°C° 0 mm 1 mps 739 mmHg 92%
    02:00 +11°C° 0 mm 1 mps 739 mmHg 94%
    03:00 +12°C° 0 mm 1 mps 740 mmHg 92%
    04:00 +12°C° 0 mm 1 mps 740 mmHg 89%
    05:00 +13°C° 0 mm 1 mps 740 mmHg 87%
    06:00 +15°C° 0 mm 1 mps 741 mmHg 79%
    07:00 +18°C° 0 mm 1 mps 741 mmHg 70%
    08:00 +20°C° 0 mm 1 mps 741 mmHg 62%
    09:00 +22°C° 0 mm 1 mps 741 mmHg 57%
    10:00 +23°C° 0 mm 1 mps 742 mmHg 52%
    11:00 +24°C° 0 mm 1 mps 742 mmHg 47%
    12:00 +24°C° 0 mm 1 mps 742 mmHg 48%
    13:00 +24°C° 0 mm 1 mps 742 mmHg 50%
    14:00 +24°C° 0 mm 1 mps 742 mmHg 51%
    15:00 +22°C° 0 mm 0 mps 742 mmHg 52%
    16:00 +22°C° 0 mm 0 mps 742 mmHg 53%
    17:00 +22°C° 0 mm 0 mps 742 mmHg 54%
    18:00 +20°C° 0 mm 0 mps 742 mmHg 60%
    19:00 +18°C° 0 mm 0 mps 742 mmHg 67%
    20:00 +16°C° 0 mm 0 mps 742 mmHg 73%
    21:00 +16°C° 0 mm 1 mps 742 mmHg 75%
    22:00 +15°C° 0 mm 1 mps 742 mmHg 78%
    23:00 +14°C° 0 mm 1 mps 742 mmHg 80%

    Day after tomorrow, 27 June, Wednesday

    Time Temperature Precipitation Wind Pressure Humidity
    00:00 +14°C° 0 mm 1 mps 743 mmHg 81%
    01:00 +14°C° 0 mm 1 mps 743 mmHg 83%
    02:00 +13°C° 0 mm 1 mps 743 mmHg 84%
    03:00 +14°C° 0 mm 1 mps 743 mmHg 83%
    04:00 +15°C° 0 mm 1 mps 743 mmHg 82%
    05:00 +15°C° 0 mm 1 mps 744 mmHg 81%
    06:00 +18°C° 0 mm 1 mps 744 mmHg 73%
    07:00 +21°C° 0 mm 1 mps 744 mmHg 66%
    08:00 +23°C° 0 mm 1 mps 744 mmHg 58%
    09:00 +24°C° 0 mm 1 mps 744 mmHg 53%
    10:00 +25°C° 0 mm 1 mps 744 mmHg 48%
    11:00 +26°C° 0 mm 1 mps 744 mmHg 43%
    12:00 +26°C° 0 mm 1 mps 744 mmHg 42%
    13:00 +27°C° 0 mm 1 mps 744 mmHg 41%
    14:00 +27°C° 0 mm 1 mps 744 mmHg 40%
    15:00 +26°C° 0 mm 1 mps 743 mmHg 44%
    16:00 +26°C° 0 mm 1 mps 743 mmHg 48%
    17:00 +25°C° 0 mm 1 mps 743 mmHg 52%
    18:00 +23°C° 0 mm 1 mps 743 mmHg 59%
    19:00 +22°C° 0 mm 1 mps 743 mmHg 66%
    20:00 +20°C° 0 mm 1 mps 743 mmHg 74%
    21:00 +19°C° 0 mm 1 mps 743 mmHg 76%
    22:00 +18°C° 0 mm 1 mps 743 mmHg 78%
    23:00 +16°C° 0 mm 1 mps 743 mmHg 81%

    28 June, Thursday

    Time Temperature Precipitation Wind Pressure Humidity
    00:00 +15°C° 0 mm 1 mps 743 mmHg 83%
    01:00 +15°C° 0 mm 1 mps 743 mmHg 84%
    02:00 +14°C° 0 mm 1 mps 744 mmHg 86%
    03:00 +15°C° 0 mm 1 mps 744 mmHg 85%
    04:00 +15°C° 0 mm 1 mps 744 mmHg 83%
    05:00 +16°C° 0 mm 1 mps 744 mmHg 82%
    06:00 +19°C° 0 mm 1 mps 744 mmHg 74%
    07:00 +21°C° 0 mm 1 mps 744 mmHg 66%
    08:00 +23°C° 0 mm 1 mps 744 mmHg 58%
    09:00 +24°C° 0 mm 1 mps 744 mmHg 53%
    10:00 +26°C° 0 mm 1 mps 744 mmHg 48%
    11:00 +27°C° 0 mm 1 mps 743 mmHg 42%
    12:00 +27°C° 0 mm 1 mps 743 mmHg 41%
    13:00 +27°C° 0 mm 1 mps 743 mmHg 39%
    14:00 +28°C° 0 mm 1 mps 742 mmHg 38%
    15:00 +27°C° 0 mm 1 mps 742 mmHg 42%
    16:00 +26°C° 0 mm 1 mps 742 mmHg 46%
    17:00 +26°C° 0 mm 1 mps 742 mmHg 50%
    18:00 +24°C° 0 mm 1 mps 741 mmHg 57%
    19:00 +22°C° 0 mm 1 mps 741 mmHg 64%
    20:00 +20°C° 0 mm 1 mps 741 mmHg 71%
    21:00 +19°C° 0 mm 1 mps 741 mmHg 74%
    22:00 +16°C° 0 mm 0 mps 740 mmHg 76%
    23:00 +15°C° 0 mm 0 mps 740 mmHg 79%

    29 June, Friday

    Time Temperature Precipitation Wind Pressure Humidity
    00:00 +14°C° 0 mm 0 mps 740 mmHg 80%
    01:00 +14°C° 0 mm 0 mps 740 mmHg 81%
    02:00 +14°C° 0 mm 0 mps 740 mmHg 82%
    03:00 +14°C° 0 mm 0 mps 739 mmHg 81%
    04:00 +15°C° 0 mm 0 mps 739 mmHg 79%
    05:00 +16°C° 0 mm 0 mps 739 mmHg 78%
    06:00 +20°C° 0 mm 1 mps 738 mmHg 71%
    07:00 +22°C° 0 mm 1 mps 738 mmHg 64%
    08:00 +24°C° 0 mm 2 mps 738 mmHg 57%
    09:00 +25°C° 0 mm 2 mps 737 mmHg 53%
    10:00 +26°C° 0 mm 2 mps 737 mmHg 49%
    11:00 +26°C° 0 mm 3 mps 736 mmHg 45%
    12:00 +26°C° 0 mm 3 mps 735 mmHg 47%
    13:00 +26°C° 0 mm 3 mps 735 mmHg 48%
    14:00 +26°C° 0 mm 3 mps 734 mmHg 50%
    15:00 +26°C° 0 mm 3 mps 733 mmHg 52%
    16:00 +26°C° 0 mm 2 mps 733 mmHg 54%
    17:00 +26°C° 0 mm 2 mps 732 mmHg 56%
    18:00 +24°C° 0.6 mm 3 mps 731 mmHg 65%
    19:00 +21°C° 0.6 mm 3 mps 731 mmHg 74%
    20:00 +19°C° 0.6 mm 3 mps 730 mmHg 82%
    21:00 +17°C° 0.9 mm 3 mps 730 mmHg 86%
    22:00 +16°C° 0.9 mm 3 mps 730 mmHg 90%
    23:00 +13°C° 0.9 mm 3 mps 730 mmHg 94%

    30 June, Saturday

    Time Temperature Precipitation Wind Pressure Humidity
    00:00 +12°C° 0.1 mm 3 mps 730 mmHg 95%
    01:00 +11°C° 0.1 mm 3 mps 730 mmHg 95%
    02:00 +10°C° 0.1 mm 3 mps 730 mmHg 95%
    03:00 +10°C° 0 mm 3 mps 730 mmHg 93%
    04:00 +10°C° 0 mm 3 mps 730 mmHg 92%
    05:00 +9°C° 0 mm 3 mps 730 mmHg 91%
    06:00 +10°C° 0 mm 3 mps 731 mmHg 82%
    07:00 +12°C° 0 mm 4 mps 731 mmHg 73%
    08:00 +13°C° 0 mm 5 mps 731 mmHg 64%
    09:00 +13°C° 0 mm 5 mps 731 mmHg 64%
    10:00 +13°C° 0 mm 5 mps 731 mmHg 64%
    11:00 +13°C° 0 mm 5 mps 730 mmHg 64%
    12:00 +13°C° 0 mm 5 mps 731 mmHg 62%
    13:00 +13°C° 0 mm 5 mps 731 mmHg 60%
    14:00 +13°C° 0 mm 5 mps 731 mmHg 58%
    15:00 +13°C° 0.1 mm 5 mps 731 mmHg 60%
    16:00 +12°C° 0.1 mm 5 mps 731 mmHg 63%
    17:00 +12°C° 0.1 mm 5 mps 731 mmHg 65%
    18:00 +10°C° 0 mm 5 mps 731 mmHg 68%
    19:00 +10°C° 0 mm 4 mps 732 mmHg 70%
    20:00 +8°C° 0 mm 4 mps 732 mmHg 73%
    21:00 +7°C° 0 mm 4 mps 732 mmHg 74%
    22:00 +7°C° 0 mm 4 mps 732 mmHg 75%
    23:00 +6°C° 0 mm 4 mps 732 mmHg 76%
    Show more